N575VH KATL-KFLL

Flight info

Callsign N575VH
Flight time N/A
Altitude 37000
Route SMLTZ3 WALET ZPLEN TEEKY3
Aircraft A333/H-SDE3GHIJ2J3J5M1RVWXY/LB2D1

Departure

Time 2026-05-05 00:53
Airport Hartsfield Jackson Atlanta International Airport (KATL)

Arrival

Time N/A
Airport Fort Lauderdale Hollywood International Airport (KFLL)
Time Latitude Longitude Altitude Speed Heading
2026-05-05 00:40 33.65189 -84.42411 1010 ft 0 kts 29°
2026-05-05 00:43 33.65191 -84.42410 1010 ft 0 kts 29°
2026-05-05 00:44 33.65200 -84.42377 1010 ft 8 kts 95°
2026-05-05 00:44 33.65175 -84.42303 1010 ft 11 kts 112°
2026-05-05 00:44 33.65155 -84.42256 1010 ft 0 kts 122°
2026-05-05 00:45 33.65153 -84.42253 1010 ft 3 kts 123°
2026-05-05 00:45 33.65078 -84.42184 1010 ft 18 kts 122°
2026-05-05 00:45 33.65065 -84.42033 1010 ft 19 kts 92°
2026-05-05 00:45 33.65064 -84.41868 1010 ft 21 kts 90°
2026-05-05 00:46 33.65065 -84.41688 1010 ft 22 kts 89°
2026-05-05 00:46 33.65097 -84.41501 1010 ft 23 kts 70°
2026-05-05 00:46 33.65120 -84.41307 1010 ft 24 kts 90°
2026-05-05 00:46 33.65119 -84.41113 1010 ft 20 kts 91°
2026-05-05 00:47 33.65097 -84.40989 1010 ft 11 kts 127°
2026-05-05 00:47 33.65074 -84.40971 1010 ft 0 kts 158°
2026-05-05 00:52 33.65063 -84.40967 1010 ft 4 kts 166°
2026-05-05 00:52 33.65002 -84.40965 1010 ft 13 kts 187°
2026-05-05 00:52 33.64957 -84.41048 1010 ft 10 kts 266°
2026-05-05 00:52 33.64956 -84.41063 1010 ft 9 kts 266°
2026-05-05 00:53 33.64954 -84.41493 1009 ft 96 kts 270°
2026-05-05 00:53 33.64962 -84.42629 1164 ft 165 kts 268°
2026-05-05 00:53 33.65024 -84.44141 1972 ft 199 kts 270°
2026-05-05 00:53 33.65020 -84.45924 2974 ft 226 kts 262°
2026-05-05 00:54 33.64499 -84.47747 4118 ft 237 kts 235°
2026-05-05 00:54 33.63241 -84.49020 5335 ft 241 kts 201°
2026-05-05 00:54 33.61613 -84.49044 6569 ft 244 kts 161°
2026-05-05 00:54 33.60276 -84.47794 7718 ft 252 kts 130°
2026-05-05 00:55 33.59248 -84.46007 8616 ft 270 kts 127°
2026-05-05 00:55 33.57889 -84.44382 9477 ft 284 kts 149°
2026-05-05 00:55 33.56058 -84.43364 10389 ft 295 kts 164°
2026-05-05 00:55 33.54071 -84.42564 11318 ft 308 kts 158°
2026-05-05 00:56 33.52301 -84.41128 12450 ft 305 kts 136°
2026-05-05 00:56 33.51226 -84.39012 13655 ft 293 kts 110°
2026-05-05 00:56 33.50508 -84.36756 14623 ft 289 kts 117°
2026-05-05 00:56 33.49325 -84.34841 15381 ft 286 kts 142°
2026-05-05 00:57 33.47608 -84.33706 16078 ft 284 kts 167°
2026-05-05 00:57 33.45651 -84.33356 16678 ft 287 kts 180°
2026-05-05 00:57 33.43621 -84.33260 17271 ft 297 kts 182°